Location: Eaton Estates
(41.3089°N, 82.0057°W)
Time: 14:39:27
(UTC+00:00)

ESTCUBE 1 - Visible Passes

Search period start: 27 March 2023 00:00
Search period end: 06 April 2023 00:00
Orbit: 642 x 655 km, 97.9° (Epoch: 27 March)

Date Brightness Start Highest point End Pass type
(mag) Time Alt. Az. Time Alt. Az. Time Alt. Az.
27 Mar ? 02:23:49 11° NNE 02:23:49 11° NNE 02:24:10 10° NNE visible
27 Mar ? 04:01:33 10° NNW 04:01:33 10° NNW 04:01:35 10° NNW visible
28 Mar ? 02:50:03 15° N 02:50:03 15° N 02:50:52 10° N visible
29 Mar ? 03:16:18 16° N 03:16:18 16° N 03:17:12 10° N visible
30 Mar ? 03:42:32 14° NNW 03:42:32 14° NNW 03:43:15 10° NNW visible
31 Mar ? 02:31:02 14° NNE 02:31:02 14° NNE 02:31:56 10° NNE visible
31 Mar ? 04:08:46 11° NNW 04:08:46 11° NNW 04:08:59 10° NNW visible
01 Apr ? 02:57:15 18° N 02:57:15 18° N 02:58:29 10° N visible
02 Apr ? 03:23:27 19° N 03:23:27 19° N 03:24:42 10° N visible
03 Apr ? 02:11:55 12° NE 02:11:55 12° NE 02:12:39 10° NNE visible
03 Apr ? 03:49:40 16° NNW 03:49:40 16° NNW 03:50:38 10° NNW visible
04 Apr ? 02:38:07 18° NNE 02:38:07 18° NNE 02:39:32 10° N visible
04 Apr ? 04:15:52 12° NW 04:15:52 12° NW 04:16:14 10° NW visible
05 Apr ? 03:04:19 21° N 03:04:19 21° N 03:05:57 10° N visible
